User: anonymous   Login
Location: Taipo
(41.0000°S, 175.9500°E)
Time: 16:40:38
(UTC+00:00)
Language:

YUBILEINY - Orbit

View from above orbital plane
View from above orbital plane
View from above satellite
View from above satellite

Ground track
Ground track

The orbit is defined by the following mean orbital elements,

1 32953U          26100.25539978 +.00000000 +00000-0 -20581-4 0 00003
2 32953  82.5061  37.6871 0020520  98.1757 262.1652 12.43177251    01
Epoch (UTC): 10 April 2026 06:07:46
Eccentricity: 0.0020520
inclination: 82.5061°
perigee height: 1477 km
apogee height: 1509 km
right ascension of ascending node: 37.6871°
argument of perigee: 98.1757°
revolutions per day: 12.43177251
mean anomaly at epoch: 262.1652°

The dashed part of the orbit path shows where the satellite is in the earth's shadow,  

DLR